Talkeetna, AK

10:22 AM AKST on December 07, 2016 (GMT -0900)
Talkeetna

Weather History for PATK - December, 2012

Change the Weather History Date:

Thursday, December 20, 2012

  Actual Average Record
Temperature  
Mean Temperature 3 °F -  
Max Temperature 19 °F 22 °F 38 °F (1952)
Min Temperature -13 °F 5 °F -32 °F (1957)
Degree Days  
Heating Degree Days 62    
Moisture  
Dew Point -13 °F    
Average Humidity 26    
Maximum Humidity 36    
Minimum Humidity 16    
Precipitation  
Precipitation 0.00 in - - ()
Sea Level Pressure  
Sea Level Pressure 30.15 in    
Wind  
Wind Speed 12 mph (NNE)    
Max Wind Speed 20 mph    
Max Gust Speed 31 mph    
Visibility 10 miles    
Events      
Averages and records for this station are not official NWS values.
T = Trace of Precipitation, MM = Missing Value Source: NWS Daily Summary

Daily Weather History Graph

Daily Weather History Graph

Search for Another Location

Airport or City:

Trip Planner

Search our weather history database for the weather conditions in past years. The results will help you decide how hot, cold, wet, or windy it might be!

Date:

Astronomy

Dec. 20, 2012 Rise Set
Actual Time 10:27 AM AKST 3:28 PM AKST
Civil Twilight 9:20 AM AKST 4:36 PM AKST
Nautical Twilight 8:17 AM AKST 5:39 PM AKST
Astronomical Twilight 7:21 AM AKST 6:35 PM AKST
Moon 12:32 PM AKST (12/20) 1:35 AM AKST (12/20)
Length of Visible Light 7h 15m
Length of Day
5h 00m
First Quarter, 56% of the Moon is Illuminated
Dec 20
First Quarter
Dec 28
Full
Jan 4
Last Quarter
Jan 11
New
Jan 18
First Quarter

Hourly Weather History & Observations

Time (AKST) Temp. Windchill Dew Point Humidity Pressure Visibility Wind Dir Wind Speed Gust Speed Precip Events Conditions
12:53 AM 18.0 °F 6.1 °F -11.0 °F 27% 30.04 in 10.0 mi NNE 10.4 mph - N/A   Clear
1:53 AM 18.0 °F 3.1 °F -11.9 °F 26% 30.05 in 10.0 mi NNE 16.1 mph 25.3 mph N/A   Clear
3:53 AM 19.0 °F 3.2 °F -13.0 °F 24% 30.08 in 10.0 mi NNE 19.6 mph 31.1 mph N/A   Clear
4:53 AM 16.0 °F 2.3 °F -9.9 °F 31% 30.10 in 10.0 mi NE 12.7 mph - N/A   Clear
5:53 AM 15.1 °F 2.5 °F -11.0 °F 31% 30.10 in 10.0 mi NNE 10.4 mph - N/A   Clear
6:53 AM 17.1 °F 2.0 °F -11.0 °F 28% 30.12 in 10.0 mi NNE 16.1 mph 25.3 mph N/A   Clear
7:53 AM 16.0 °F 1.7 °F -9.9 °F 31% 30.12 in 10.0 mi NNE 13.8 mph 23.0 mph N/A   Clear
8:53 AM 16.0 °F 5.3 °F -9.9 °F 31% 30.14 in 10.0 mi NE 8.1 mph 19.6 mph N/A   Clear
9:53 AM 17.1 °F 3.6 °F -11.9 °F 27% 30.16 in 10.0 mi NNE 12.7 mph - N/A   Clear
10:53 AM 18.0 °F 3.1 °F -11.9 °F 26% 30.16 in 10.0 mi NNE 16.1 mph 23.0 mph N/A   Clear
11:53 AM 16.0 °F 5.3 °F -11.9 °F 28% 30.18 in 10.0 mi ENE 8.1 mph 19.6 mph N/A   Clear
12:53 PM 18.0 °F 2.6 °F -11.0 °F 27% 30.19 in 10.0 mi NE 17.3 mph 24.2 mph N/A   Clear
1:53 PM 19.0 °F 4.5 °F -11.0 °F 26% 30.19 in 10.0 mi NNE 16.1 mph 24.2 mph N/A   Clear
2:53 PM 19.0 °F 7.5 °F -13.0 °F 24% 30.19 in 10.0 mi NNE 10.4 mph 18.4 mph N/A   Clear
3:53 PM 16.0 °F 2.3 °F -11.9 °F 28% 30.19 in 10.0 mi NE 12.7 mph 18.4 mph N/A   Clear
4:53 PM 18.0 °F 6.1 °F -15.0 °F 22% 30.18 in 10.0 mi NNE 10.4 mph 20.7 mph N/A   Clear
5:53 PM 18.0 °F 6.9 °F -16.1 °F 21% 30.20 in 10.0 mi North 9.2 mph - N/A   Clear
6:53 PM 16.0 °F 10.4 °F -17.0 °F 22% 30.20 in 10.0 mi North 3.5 mph - N/A   Clear
7:53 PM 9.0 °F - -13.0 °F 36% 30.19 in 10.0 mi Calm Calm - N/A   Clear
8:53 PM 19.0 °F 7.5 °F -17.0 °F 19% 30.19 in 10.0 mi North 10.4 mph 19.6 mph N/A   Clear
9:53 PM 15.1 °F - -16.1 °F 24% 30.20 in 10.0 mi Calm Calm - N/A   Clear
10:53 PM 16.0 °F 2.9 °F -14.1 °F 26% 30.21 in 10.0 mi NNE 11.5 mph - N/A   Clear
11:53 PM 17.1 °F 4.3 °F -15.0 °F 23% 30.20 in 10.0 mi NNE 11.5 mph 21.9 mph N/A   Clear